TimePST,TemperatureF,Dew PointF,Humidity,Sea Level PressureIn,VisibilityMPH,Wind Direction,Wind SpeedMPH,Gust SpeedMPH,PrecipitationIn,Events,Conditions,WindDirDegrees,DateUTC
12:08 AM,26.6,24.8,93,29.96,5.0,Calm,Calm,-,N/A,,Partly Cloudy,0,2012-11-10 08:08:00
12:11 AM,26.6,24.8,93,29.96,1.5,Calm,Calm,-,N/A,,Partly Cloudy,0,2012-11-10 08:11:00
12:14 AM,26.6,24.8,93,29.96,0.8,Calm,Calm,-,N/A,,Mist,0,2012-11-10 08:14:00
12:24 AM,26.6,26.6,100,29.97,1.2,Calm,Calm,-,N/A,,Partly Cloudy,0,2012-11-10 08:24:00
12:27 AM,24.8,24.8,100,29.97,2.0,Calm,Calm,-,N/A,,Partly Cloudy,0,2012-11-10 08:27:00
12:37 AM,24.8,24.8,100,29.97,4.0,Calm,Calm,-,N/A,,Clear,0,2012-11-10 08:37:00
12:46 AM,26.6,24.8,93,29.97,1.8,Calm,Calm,-,N/A,,Clear,0,2012-11-10 08:46:00
12:52 AM,24.8,24.8,100,29.97,1.0,Calm,Calm,-,N/A,,Mist,0,2012-11-10 08:52:00
12:54 AM,24.1,23.0,96,29.98,0.8,Calm,Calm,-,N/A,,Mist,0,2012-11-10 08:54:00
1:09 AM,24.8,23.0,93,29.97,1.2,Calm,Calm,-,N/A,,Partly Cloudy,0,2012-11-10 09:09:00
1:12 AM,26.6,24.8,93,29.97,2.0,Calm,Calm,-,N/A,,Partly Cloudy,0,2012-11-10 09:12:00
1:19 AM,24.8,24.8,100,29.97,4.0,Calm,Calm,-,N/A,,Partly Cloudy,0,2012-11-10 09:19:00
1:32 AM,26.6,24.8,93,29.98,2.0,Calm,Calm,-,N/A,,Clear,0,2012-11-10 09:32:00
1:34 AM,26.6,24.8,93,29.98,1.2,Calm,Calm,-,N/A,,Clear,0,2012-11-10 09:34:00
1:38 AM,26.6,24.8,93,29.98,0.5,Calm,Calm,-,N/A,Fog,Light Freezing Fog,0,2012-11-10 09:38:00
1:47 AM,26.6,24.8,93,29.98,0.2,Calm,Calm,-,N/A,Fog,Light Freezing Fog,0,2012-11-10 09:47:00
1:52 AM,26.6,24.8,93,29.99,1.2,South,3.5,-,N/A,,Scattered Clouds,180,2012-11-10 09:52:00
1:54 AM,26.1,25.0,96,29.99,2.5,South,4.6,-,N/A,,Scattered Clouds,180,2012-11-10 09:54:00
2:01 AM,24.8,24.8,100,29.99,3.0,Calm,Calm,-,N/A,,Scattered Clouds,0,2012-11-10 10:01:00
2:54 AM,25.0,21.9,88,30.00,2.5,Calm,Calm,-,N/A,,Clear,0,2012-11-10 10:54:00
3:05 AM,24.8,24.8,100,29.99,1.5,Calm,Calm,-,N/A,,Clear,0,2012-11-10 11:05:00
3:19 AM,24.8,24.8,100,29.99,0.8,Calm,Calm,-,N/A,,Clear,0,2012-11-10 11:19:00
3:27 AM,23.0,21.2,93,29.99,1.8,Calm,Calm,-,N/A,,Clear,0,2012-11-10 11:27:00
3:29 AM,23.0,21.2,93,29.99,3.0,Calm,Calm,-,N/A,,Clear,0,2012-11-10 11:29:00
3:33 AM,21.2,19.4,93,30.00,1.2,Calm,Calm,-,N/A,,Clear,0,2012-11-10 11:33:00
3:35 AM,21.2,19.4,93,30.00,1.0,Calm,Calm,-,N/A,,Mist,0,2012-11-10 11:35:00
3:43 AM,24.8,21.2,86,30.00,2.0,Calm,Calm,-,N/A,,Scattered Clouds,0,2012-11-10 11:43:00
3:49 AM,23.0,21.2,93,30.00,1.5,Calm,Calm,-,N/A,,Mostly Cloudy,0,2012-11-10 11:49:00
3:51 AM,24.8,23.0,93,30.00,0.8,Calm,Calm,-,N/A,,Mist,0,2012-11-10 11:51:00
3:54 AM,24.8,24.8,100,30.00,0.5,Calm,Calm,-,N/A,Fog,Light Freezing Fog,0,2012-11-10 11:54:00
4:02 AM,24.8,21.2,86,30.00,1.8,Calm,Calm,-,N/A,,Scattered Clouds,0,2012-11-10 12:02:00
4:09 AM,24.8,21.2,86,30.00,2.5,Calm,Calm,-,N/A,,Scattered Clouds,0,2012-11-10 12:09:00
4:37 AM,21.2,19.4,93,30.01,7.0,Calm,Calm,-,N/A,,Partly Cloudy,0,2012-11-10 12:37:00
4:54 AM,23.0,21.0,92,30.03,6.0,Calm,Calm,-,N/A,,Clear,0,2012-11-10 12:54:00
5:54 AM,25.0,23.0,92,30.04,6.0,Calm,Calm,-,N/A,,Mostly Cloudy,0,2012-11-10 13:54:00
6:54 AM,25.0,24.1,96,30.06,7.0,Calm,Calm,-,N/A,,Overcast,0,2012-11-10 14:54:00
7:54 AM,28.0,26.1,92,30.08,10.0,Calm,Calm,-,N/A,,Overcast,0,2012-11-10 15:54:00
8:54 AM,30.0,28.0,92,30.10,10.0,Calm,Calm,-,N/A,,Overcast,0,2012-11-10 16:54:00
9:54 AM,30.9,30.0,96,30.12,10.0,Calm,Calm,-,N/A,,Scattered Clouds,0,2012-11-10 17:54:00
10:54 AM,37.9,34.0,86,30.12,10.0,Calm,Calm,-,N/A,,Partly Cloudy,0,2012-11-10 18:54:00
11:54 AM,42.1,30.9,65,30.13,10.0,SE,3.5,-,N/A,,Partly Cloudy,130,2012-11-10 19:54:00
12:54 PM,44.1,28.0,53,30.14,10.0,ESE,3.5,-,N/A,,Partly Cloudy,110,2012-11-10 20:54:00
1:54 PM,45.0,25.0,46,30.14,10.0,ESE,4.6,-,N/A,,Partly Cloudy,120,2012-11-10 21:54:00
2:54 PM,45.0,27.0,49,30.14,10.0,East,3.5,-,N/A,,Clear,80,2012-11-10 22:54:00
3:54 PM,44.1,27.0,51,30.16,10.0,East,4.6,-,N/A,,Clear,100,2012-11-10 23:54:00
4:54 PM,36.0,27.0,70,30.17,10.0,Calm,Calm,-,N/A,,Clear,0,2012-11-11 00:54:00
5:54 PM,32.0,26.1,79,30.18,10.0,Calm,Calm,-,N/A,,Clear,0,2012-11-11 01:54:00
6:54 PM,30.9,27.0,85,30.19,7.0,Calm,Calm,-,N/A,,Clear,0,2012-11-11 02:54:00
7:54 PM,28.4,26.6,93,30.19,7.0,Calm,Calm,-,N/A,,Clear,0,2012-11-11 03:54:00
8:54 PM,28.0,26.1,92,30.21,4.0,Calm,Calm,-,N/A,,Clear,0,2012-11-11 04:54:00
9:54 PM,28.0,26.1,92,30.22,5.0,Calm,Calm,-,N/A,,Clear,0,2012-11-11 05:54:00
10:54 PM,28.0,26.1,92,30.22,4.0,Calm,Calm,-,N/A,,Clear,0,2012-11-11 06:54:00
11:54 PM,28.9,28.0,96,30.23,4.0,Calm,Calm,-,N/A,,Mostly Cloudy,0,2012-11-11 07:54:00